[[{"header":{"parameterUnit":"m.s-1","parameterCategory":2,"la1":30.2991,"la2":30.254,"lo1":-89.0895,"lo2":-89.0444,"dy":0.0017,"dx":0.0017,"nx":28,"ny":28,"refTime":"2024-12-01T03:00:00:Z","depth":"0","parameterNumber":2,"parameterNumberName":"U-component_of_CURRENTS"},"data":[0,0,0,0,0,0,0,0,0,0,0,0,0,0,0,0,0,0,0,0,0,0,0,0,0,0,0,0,0,0,0,0,0,0,0,0,0,0,0,0,0,0,0,0,0,0,0,0,0,0,0,0,0,0,0,0,0,0,0.378,0.3781,0,0.3831,0.3831,0.3831,0.3833,0.3833,0.3833,0.3832,0.3849,0.3849,0.385,0,0,0,0,0,0,0,0,0,0,0,0,0,0.3688,0.3689,0.378,0.3781,0.3782,0.3831,0.3831,0.3831,0.3833,0.3833,0.3833,0.3832,0.3848,0.3849,0.385,0,0,0,0,0,0,0,0,0,0,0,0,0,0.3728,0.3689,0.378,0.3791,0.3793,0.3831,0.3831,0.3831,0.3833,0.3833,0.3832,0.3832,0.3848,0.3849,0.385,0.3865,0,0,0.3853,0.3854,0,0,0,0,0,0,0,0,0.3726,0.3731,0.3789,0.3791,0.3793,0.3828,0.3805,0.3842,0.3833,0.3814,0.3832,0.3832,0.3841,0.3843,0.3849,0.3866,0.3866,0.3854,0.3854,0.3855,0.3855,0,0,0,0,0,0,0,0.3723,0.3729,0.3796,0.379,0.3792,0.3795,0.38,0.3812,0.3826,0.3816,0.3817,0.3829,0.3842,0.3848,0.3849,0.3867,0.3853,0.3854,0.3855,0.3855,0.3908,0.3908,0,0,0,0,0,0,0.3725,0.3727,0.3795,0.3798,0.3762,0.3798,0.3803,0.3814,0.3827,0.383,0.3829,0.3829,0.3846,0.3848,0.385,0.3887,0.3855,0.3856,0.3856,0.3907,0.3908,0.3909,0,0,0,0,0,0,0.3723,0.3731,0.3793,0.3766,0.3775,0.38,0.3813,0.3816,0.3826,0.3838,0.3839,0.3837,0.3846,0.3848,0.3862,0.3887,0.3856,0.3857,0.3906,0.3907,0.3908,0.3949,0,0,0,0,0,0,0.372,0.3729,0.3738,0.3767,0.3777,0.382,0.3814,0.3817,0.3835,0.3835,0.3845,0.3846,0.3846,0.3861,0.3863,0.3887,0.3858,0.3905,0.3907,0.3908,0.3947,0.3951,0.3955,0,0,0,0,0,0.3716,0.3729,0.3738,0.3746,0.3787,0.3821,0.3826,0.384,0.3836,0.3845,0.3849,0.3846,0.3872,0.3862,0.3865,0.389,0.3904,0.3906,0.3908,0.3945,0.395,0.3955,0,0,0,0,0,0,0.369,0.3731,0.3742,0.3765,0.3794,0.3823,0.3834,0.3844,0.3855,0.3853,0.3854,0.3856,0.3882,0.3877,0.3866,0.3909,0.3889,0.3891,0.3916,0.3921,0.3925,0.3965,0.3859,0,0,0,0,0,0.3691,0.3708,0.375,0.3766,0.3784,0.381,0.3825,0.3838,0.3854,0.3858,0.3864,0.3872,0.3892,0.3897,0.3911,0.393,0.3977,0.3947,0.3952,0.3956,0.399,0.4095,0.4113,0.3914,0.3914,0.3914,0,0,0.3681,0.3709,0.3716,0.3762,0.3783,0.3817,0.3817,0.3845,0.3871,0.3859,0.3884,0.3891,0.3902,0.3928,0.3938,0.3925,0.403,0.3958,0.3961,0.3994,0.4099,0.4119,0.4137,0.3916,0.3915,0.3915,0,0,0.3676,0.3702,0.3718,0.375,0.3795,0.3819,0.383,0.3864,0.3879,0.3903,0.391,0.3937,0.3943,0.3973,0.3985,0.4023,0.4055,0.4013,0.4065,0.4166,0.4184,0.4201,0.4263,0.4285,0.4009,0.401,0.401,0,0.3663,0.3695,0.3727,0.376,0.3787,0.3822,0.3851,0.3881,0.3912,0.3936,0.3913,0.3978,0.3975,0.4047,0.4053,0.4038,0.4089,0.4042,0.4176,0.4193,0.421,0.427,0.4294,0.4012,0.4011,0.4011,0.4011,0,0.368,0.3708,0.3722,0.3776,0.381,0.384,0.3893,0.3925,0.394,0.3972,0.4037,0.4051,0.4095,0.4092,0.408,0.4194,0.4187,0.4175,0.4169,0.4233,0.429,0.4315,0.4015,0.4014,0.4013,0.4013,0,0,0.3634,0.3716,0.3718,0.3746,0.3821,0.3846,0.3909,0.3976,0.4037,0.4062,0.4146,0.417,0.4194,0.4212,0.4217,0.4295,0.4429,0.4284,0.4288,0.4357,0.4641,0.4538,0.4554,0.4447,0.4452,0.4456,0.4626,0,0.3633,0.3682,0.3732,0.378,0.381,0.3877,0.3939,0.4008,0.4069,0.4162,0.4211,0.4288,0.4237,0.4276,0.4346,0.4429,0.45,0.4384,0.456,0.4565,0.4476,0.4582,0.4409,0.4538,0.465,0.4654,0.4657,0,0.3628,0.3664,0.3705,0.3791,0.3813,0.3854,0.3969,0.4035,0.4182,0.4241,0.4336,0.4391,0.4514,0.4462,0.4642,0.4573,0.4614,0.4662,0.4669,0.4587,0.4509,0.4496,0.4578,0.4451,0.4694,0.4691,0.4689,0,0.3565,0.3642,0.3668,0.3696,0.3805,0.3841,0.3908,0.4046,0.4135,0.4315,0.4416,0.4544,0.4643,0.4734,0.4796,0.4748,0.4998,0.4938,0.4882,0.4873,0.4769,0.4742,0.4764,0.5079,0.5078,0.5078,0.5077,0,0.3538,0.3558,0.3639,0.3653,0.3715,0.3803,0.3906,0.4008,0.4189,0.4322,0.4455,0.4589,0.4725,0.4859,0.4885,0.4965,0.5066,0.4935,0.4934,0.4769,0.4742,0.4659,0.459,0.5084,0.5083,0.5081,0.508,0,0.3464,0.3515,0.3554,0.365,0.3684,0.3727,0.3894,0.3985,0.4172,0.4366,0.4438,0.4674,0.4846,0.4951,0.5122,0.508,0.5021,0.5152,0.4927,0.4895,0.4671,0.461,0.4526,0.4387,0.5131,0.513,0.5129,0,0.343,0.344,0.3529,0.3556,0.3596,0.3684,0.376,0.3949,0.4066,0.4398,0.449,0.4735,0.4877,0.5087,0.5079,0.5138,0.4988,0.4989,0.4853,0.4673,0.4608,0.4437,0.4312,0.4729,0.4725,0.4722,0.4719,0,0.3369,0.3399,0.3433,0.3491,0.355,0.3632,0.3756,0.3847,0.4096,0.4272,0.4496,0.4646,0.4867,0.4859,0.4947,0.4949,0.4738,0.4916,0.4819,0.4381,0.4115,0.3972,0.4579,0.4688,0.4691,0.4694,0.4695,0.4696,0.3318,0.3325,0.337,0.3413,0.3485,0.3553,0.3583,0.3742,0.39,0.4114,0.4336,0.4465,0.4615,0.4707,0.4688,0.4536,0.4512,0.4397,0.4368,0.4235,0.3998,0.4512,0.4551,0.4553,0.4555,0.4557,0.4558,0,0.3233,0.325,0.3293,0.3335,0.3358,0.3436,0.3556,0.3563,0.3669,0.388,0.4025,0.4121,0.4164,0.4246,0.4206,0.4033,0.3858,0.3915,0.3658,0.3584,0.4144,0.4021,0.3837,0.3837,0.3837,0.3838,0.3838,0.3838,0.3191,0.3176,0.319,0.3182,0.3212,0.3199,0.3224,0.3267,0.3365,0.3423,0.3457,0.3576,0.3827,0.3929,0.3796,0.3689,0.3387,0.3227,0.3212,0.363,0.3672,0.3713,0.3582,0.3309,0.3309,0.2514,0.2508,0.2504]},{"header":{"parameterUnit":"m.s-1","parameterCategory":2,"la1":30.2991,"la2":30.254,"lo1":-89.0895,"lo2":-89.0444,"dy":0.0017,"dx":0.0017,"nx":28,"ny":28,"refTime":"2024-12-01T03:00:00:Z","depth":"0","parameterNumber":3,"parameterNumberName":"V-component_of_CURRENTS"},"data":[0,0,0,0,0,0,0,0,0,0,0,0,0,0,0,0,0,0,0,0,0,0,0,0,0,0,0,0,0,0,0,0,0,0,0,0,0,0,0,0,0,0,0,0,0,0,0,0,0,0,0,0,0,0,0,0,0,0,0.0025,0.0025,0,-0.0044,-0.0045,-0.0046,-0.0101,-0.0102,-0.0102,-0.0102,-0.0207,-0.021,-0.0212,0,0,0,0,0,0,0,0,0,0,0,0,0,0.0052,0.0052,0.0025,0.0025,0.0024,-0.0044,-0.0045,-0.0046,-0.0101,-0.0102,-0.0102,-0.0102,-0.0207,-0.021,-0.0213,0,0,0,0,0,0,0,0,0,0,0,0,0,0.0015,0.0052,0.0025,-0.001,-0.0013,-0.0044,-0.0045,-0.0047,-0.0101,-0.0102,-0.0102,-0.0103,-0.0206,-0.0209,-0.0213,-0.0227,0,0,-0.0224,-0.0226,0,0,0,0,0,0,0,0,0.0017,0.0014,-0.0004,-0.0007,-0.0011,-0.0062,-0.0074,-0.0108,-0.0101,-0.0071,-0.0102,-0.0103,-0.016,-0.0168,-0.0183,-0.0232,-0.0236,-0.0225,-0.0227,-0.0229,-0.023,0,0,0,0,0,0,0,0.002,0.0016,-0.0005,-0.0004,-0.0009,-0.0042,-0.0047,-0.0081,-0.0115,-0.0073,-0.0077,-0.008,-0.0163,-0.0179,-0.0186,-0.0238,-0.0225,-0.0228,-0.023,-0.0232,-0.0287,-0.0287,0,0,0,0,0,0,0.0037,0.0019,-0.0003,-0.0007,0.0005,-0.0042,-0.0048,-0.0048,-0.0114,-0.0123,-0.008,-0.0083,-0.0172,-0.0181,-0.019,-0.0186,-0.0229,-0.0232,-0.0234,-0.0288,-0.0287,-0.0286,0,0,0,0,0,0,0.0038,0.0036,0.0,0.0006,-0.0,-0.0041,-0.0041,-0.0049,-0.006,-0.0118,-0.0128,-0.0082,-0.0173,-0.0184,-0.0206,-0.0192,-0.0234,-0.0237,-0.0289,-0.0288,-0.0287,-0.0194,0,0,0,0,0,0,0.0039,0.0037,0.0041,0.0008,-0.0,-0.0004,-0.004,-0.005,-0.0061,-0.0065,-0.0123,-0.0134,-0.0174,-0.02,-0.021,-0.0197,-0.024,-0.029,-0.0289,-0.0287,-0.0198,-0.019,-0.0183,0,0,0,0,0,0.004,0.0058,0.0042,0.0039,0.0008,-0.0002,-0.0009,-0.0042,-0.006,-0.0056,-0.0094,-0.0132,-0.0198,-0.0202,-0.0214,-0.0202,-0.0291,-0.0289,-0.0287,-0.0202,-0.0192,-0.0183,0,0,0,0,0,0,0.0075,0.0053,0.0035,0.0045,0.0027,-0.001,-0.0011,-0.0033,-0.0061,-0.0066,-0.0122,-0.0135,-0.0152,-0.0187,-0.019,-0.0214,-0.0251,-0.0251,-0.0182,-0.0173,-0.0165,-0.0142,-0.0243,0,0,0,0,0,0.0085,0.0089,0.0062,0.007,0.0064,0.0027,0.0018,-0.0002,-0.003,-0.0043,-0.0083,-0.0123,-0.0154,-0.0169,-0.0206,-0.0215,-0.024,-0.0216,-0.0208,-0.0201,-0.019,-0.0215,-0.0209,-0.0281,-0.0281,-0.0281,0,0,0.0099,0.0089,0.009,0.0077,0.0058,0.0067,0.002,0.0017,0.0023,-0.005,-0.0054,-0.01,-0.0152,-0.0164,-0.0175,-0.019,-0.0191,-0.0199,-0.0193,-0.0185,-0.0213,-0.0206,-0.02,-0.0279,-0.028,-0.028,0,0,0.0142,0.0123,0.0143,0.0134,0.0118,0.0099,0.0105,0.0073,0.0057,0.0046,-0.0004,-0.0034,-0.0083,-0.0113,-0.0135,-0.0106,-0.0152,-0.012,-0.006,-0.0085,-0.0079,-0.0074,-0.008,-0.0076,-0.0113,-0.0112,-0.0112,0,0.016,0.0183,0.0148,0.0166,0.0171,0.0123,0.0152,0.0129,0.0095,0.0092,0.0058,-0.0008,-0.0056,-0.0066,-0.0059,-0.0088,-0.0104,-0.0089,-0.0073,-0.0069,-0.0066,-0.0074,-0.0071,-0.0108,-0.0108,-0.0109,-0.0109,0,0.0217,0.0234,0.0248,0.0256,0.0255,0.0272,0.0244,0.0237,0.0208,0.0185,0.0161,0.0091,0.0056,0.0032,-0.0007,-0.0004,-0.0023,-0.0063,-0.0093,-0.0053,-0.0064,-0.0062,-0.0101,-0.0103,-0.0104,-0.0105,0,0,0.0269,0.0285,0.0292,0.0315,0.0307,0.0318,0.0328,0.033,0.035,0.0289,0.0309,0.0231,0.0188,0.016,0.0101,0.0074,0.008,0.0024,0.0021,0.0026,0.0043,0.0024,0.0023,0.0042,0.0043,0.0043,0.0033,0,0.0329,0.039,0.038,0.0441,0.0472,0.0437,0.0454,0.0444,0.0425,0.0429,0.0347,0.0332,0.0239,0.0224,0.0183,0.0114,0.0085,0.0088,-0.0003,-0.0005,-0.0022,0.0024,0.0044,0.0036,0.0034,0.0034,0.0034,0,0.0395,0.0429,0.0499,0.054,0.055,0.0572,0.0601,0.0617,0.0598,0.058,0.0542,0.0478,0.0432,0.034,0.0239,0.0247,0.0155,0.0087,0.0084,0.0034,-0.0023,-0.001,0.0037,-0.0148,0.0035,0.0035,0.0035,0,0.046,0.0518,0.058,0.0592,0.0623,0.0643,0.0662,0.0661,0.0703,0.0683,0.0716,0.0618,0.0602,0.0468,0.0316,0.0283,0.0209,0.0143,0.0035,0.0033,0.0017,0.0013,-0.0121,0.0061,0.0061,0.0061,0.0061,0,0.0534,0.0584,0.0613,0.0645,0.0727,0.0716,0.0802,0.0798,0.0832,0.092,0.0805,0.0849,0.0632,0.0556,0.0385,0.0236,0.0259,0.0063,0.0032,0.0051,0.005,-0.0142,-0.0262,0.0061,0.0061,0.0061,0.0061,0,0.0597,0.0613,0.0689,0.0735,0.0759,0.0818,0.0909,0.0974,0.0988,0.1105,0.1108,0.1042,0.0948,0.0732,0.0534,0.0353,0.0079,0.0114,0.016,0.0134,-0.0154,-0.0269,-0.0449,-0.0527,0.0005,0.0004,0.0004,0,0.0635,0.0679,0.0763,0.0822,0.0846,0.0936,0.1006,0.1045,0.1136,0.1241,0.1313,0.1248,0.125,0.0953,0.06,0.0308,0.0093,0.0105,0.0025,-0.0151,-0.0303,-0.0398,-0.0457,0.0048,0.0048,0.0048,0.0048,0,0.0711,0.0733,0.0797,0.0919,0.1003,0.112,0.1227,0.1324,0.1408,0.1529,0.1663,0.1678,0.1393,0.11,0.0661,0.0435,-0.0028,0.0095,-0.0102,-0.0287,-0.0384,-0.0478,0.0042,0.0048,0.0048,0.0048,0.0048,0.0048,0.0767,0.0825,0.0908,0.1027,0.1135,0.1283,0.14,0.1548,0.1734,0.1937,0.1927,0.2014,0.1552,0.0965,0.0617,-0.0012,-0.0038,-0.0207,-0.0329,-0.0406,-0.0499,0.003,-0.0,-0.0001,-0.0001,-0.0001,-0.0001,0,0.0835,0.0901,0.1014,0.1154,0.1286,0.1332,0.1537,0.1681,0.1931,0.2128,0.2268,0.211,0.1551,0.0948,0.0092,-0.0352,-0.0521,-0.0595,-0.0732,-0.0771,-0.0301,-0.0318,-0.04,-0.04,-0.04,-0.0399,-0.0399,-0.0399,0.087,0.0979,0.1034,0.1251,0.1361,0.1555,0.1682,0.1915,0.2097,0.2358,0.2435,0.2447,0.1966,0.0458,-0.0541,-0.0755,-0.1073,-0.1157,-0.1308,-0.1003,-0.0976,-0.0951,-0.0994,-0.1217,-0.1218,-0.1706,-0.1711,-0.1715]}],[{"header":{"parameterUnit":"m.s-1","parameterCategory":2,"la1":30.2991,"la2":30.254,"lo1":-89.0895,"lo2":-89.0444,"dy":0.0017,"dx":0.0017,"nx":28,"ny":28,"refTime":"2024-12-01T03:00:00:Z","depth":"2","parameterNumber":2,"parameterNumberName":"U-component_of_CURRENTS"},"data":[0,0,0,0,0,0,0,0,0,0,0,0,0,0,0,0,0,0,0,0,0,0,0,0,0,0,0,0,0,0,0,0,0,0,0,0,0,0,0,0,0,0,0,0,0,0,0,0,0,0,0,0,0,0,0,0,0,0,0.3169,0.3169,0,0.3196,0.3196,0.3196,0.3195,0.3195,0.3195,0.3195,0.3197,0.3197,0.3197,0,0,0,0,0,0,0,0,0,0,0,0,0,0.311,0.3111,0.3168,0.3169,0.317,0.3196,0.3196,0.3196,0.3195,0.3195,0.3195,0.3195,0.3197,0.3197,0.3197,0,0,0,0,0,0,0,0,0,0,0,0,0,0.3133,0.3111,0.3168,0.3175,0.3176,0.3196,0.3196,0.3196,0.3195,0.3195,0.3195,0.3195,0.3197,0.3197,0.3197,0.3201,0,0,0.3198,0.3198,0,0,0,0,0,0,0,0,0.3132,0.3135,0.3173,0.3174,0.3176,0.3195,0.3177,0.3198,0.3195,0.3185,0.3195,0.3195,0.3196,0.3196,0.3198,0.3201,0.3201,0.3198,0.3198,0.3198,0.3198,0,0,0,0,0,0,0,0.313,0.3134,0.3176,0.3174,0.3176,0.3175,0.3178,0.318,0.3188,0.3186,0.3186,0.3195,0.3196,0.3197,0.3198,0.3201,0.3198,0.3198,0.3198,0.3198,0.3264,0.3266,0,0,0,0,0,0,0.3134,0.3132,0.3175,0.3177,0.3157,0.3176,0.3179,0.3186,0.3188,0.319,0.3195,0.3194,0.3197,0.3197,0.3198,0.3246,0.3198,0.3198,0.3198,0.3262,0.3264,0.3266,0,0,0,0,0,0,0.3132,0.3137,0.3174,0.3158,0.3163,0.3178,0.3185,0.3187,0.3202,0.3196,0.3196,0.321,0.3197,0.3197,0.3218,0.3244,0.3198,0.3199,0.3261,0.3263,0.3265,0.3315,0,0,0,0,0,0,0.3131,0.3137,0.3146,0.3158,0.3164,0.3197,0.3186,0.3188,0.3208,0.3208,0.3209,0.3208,0.3197,0.3217,0.3218,0.3244,0.3199,0.3258,0.3262,0.3265,0.3311,0.3318,0.3325,0,0,0,0,0,0.3128,0.3139,0.3146,0.3152,0.3176,0.3198,0.3201,0.3208,0.3209,0.322,0.3225,0.3209,0.3237,0.3219,0.3219,0.3245,0.3257,0.3261,0.3264,0.3308,0.3317,0.3325,0,0,0,0,0,0,0.3116,0.3141,0.3149,0.3166,0.3188,0.3199,0.3212,0.3219,0.3232,0.3235,0.3225,0.3225,0.3257,0.3246,0.3226,0.3276,0.3247,0.3251,0.328,0.3288,0.3295,0.3314,0.3199,0,0,0,0,0,0.312,0.3135,0.316,0.3175,0.3188,0.3204,0.3216,0.3225,0.3237,0.3243,0.3245,0.3254,0.3271,0.3275,0.3286,0.3306,0.3325,0.3326,0.3333,0.3339,0.3356,0.341,0.3423,0.3278,0.3278,0.3278,0,0,0.3118,0.3136,0.3143,0.3174,0.3189,0.3215,0.321,0.3236,0.3259,0.3241,0.3271,0.328,0.3284,0.3313,0.3326,0.3306,0.3392,0.3344,0.3348,0.3363,0.3415,0.3429,0.3441,0.3281,0.328,0.328,0,0,0.3121,0.3141,0.3156,0.318,0.3214,0.323,0.3243,0.3268,0.3282,0.3311,0.3314,0.3343,0.3352,0.337,0.3377,0.3431,0.3432,0.3432,0.3475,0.3527,0.3539,0.355,0.3598,0.3612,0.3429,0.3429,0.3429,0,0.3118,0.3142,0.3164,0.3191,0.3211,0.324,0.3264,0.3289,0.3318,0.3336,0.3328,0.3383,0.3384,0.3435,0.3456,0.3448,0.3476,0.3439,0.3536,0.3547,0.3558,0.3604,0.362,0.3432,0.3432,0.3431,0.3431,0,0.3135,0.316,0.3173,0.3216,0.3243,0.327,0.331,0.3339,0.336,0.3384,0.344,0.3455,0.3488,0.3496,0.3491,0.357,0.3566,0.3543,0.3513,0.3576,0.362,0.3635,0.3436,0.3435,0.3434,0.3434,0,0,0.3106,0.3171,0.3175,0.3196,0.3259,0.3276,0.3331,0.338,0.3427,0.3457,0.3515,0.3552,0.3572,0.3584,0.3592,0.3638,0.3735,0.3626,0.3628,0.3671,0.3857,0.3789,0.3799,0.3729,0.3732,0.3734,0.3859,0,0.311,0.3151,0.319,0.3232,0.3255,0.3306,0.3357,0.3409,0.3461,0.3528,0.3564,0.3627,0.3602,0.3637,0.3678,0.3732,0.3778,0.3704,0.3792,0.3796,0.3726,0.3816,0.3501,0.358,0.3874,0.3877,0.3879,0,0.3109,0.3137,0.3174,0.3238,0.3256,0.3292,0.3377,0.3432,0.3536,0.3585,0.3655,0.3694,0.3781,0.3749,0.3865,0.382,0.3848,0.3877,0.3882,0.3814,0.3757,0.3565,0.3597,0.3905,0.3903,0.3901,0.3899,0,0.3057,0.3121,0.3145,0.3167,0.3252,0.3282,0.3337,0.3442,0.3506,0.364,0.3703,0.3798,0.3867,0.3919,0.3972,0.3934,0.4097,0.4043,0.4008,0.4003,0.3751,0.3718,0.4128,0.4128,0.4127,0.4127,0.4127,0,0.3035,0.3053,0.3123,0.3136,0.3184,0.3255,0.3332,0.3415,0.3546,0.3629,0.3731,0.3814,0.3918,0.4006,0.4026,0.4077,0.4138,0.4048,0.4042,0.3759,0.3728,0.4012,0.3997,0.4132,0.4131,0.413,0.4129,0,0.2973,0.3019,0.3049,0.313,0.3159,0.3194,0.3321,0.3382,0.3524,0.3642,0.3691,0.3865,0.3988,0.4069,0.4188,0.4151,0.4203,0.4196,0.3863,0.3815,0.406,0.4046,0.4178,0.4177,0.4176,0.4176,0.4175,0,0.2942,0.2952,0.3028,0.3046,0.3083,0.3151,0.3203,0.3355,0.3424,0.365,0.3692,0.388,0.3965,0.4126,0.4121,0.4165,0.4221,0.3887,0.3752,0.409,0.4071,0.4059,0.4046,0.3439,0.3433,0.3427,0.3423,0,0.2884,0.2914,0.2938,0.2981,0.3024,0.3072,0.3155,0.3204,0.338,0.3482,0.3625,0.3728,0.3905,0.3823,0.3906,0.3877,0.3854,0.3779,0.4233,0.3477,0.3403,0.3381,0.3392,0.3375,0.3379,0.3383,0.3386,0.3387,0.2836,0.2835,0.2869,0.2896,0.2941,0.2957,0.2951,0.3042,0.312,0.3229,0.343,0.3476,0.3571,0.3535,0.345,0.3389,0.365,0.3474,0.3486,0.3505,0.3398,0.3327,0.3265,0.3269,0.3273,0.3276,0.3279,0,0.2753,0.2761,0.2782,0.2791,0.2773,0.2848,0.2884,0.2839,0.2846,0.3002,0.3098,0.2915,0.2899,0.298,0.2819,0.2845,0.277,0.2724,0.2584,0.2637,0.2684,0.2528,0.2168,0.2164,0.216,0.2157,0,0,0.271,0.2679,0.268,0.2608,0.2617,0.2544,0.2526,0.2492,0.2536,0.2517,0.253,0.2786,0.2909,0.249,0.246,0.2277,0.2426,0.2191,0.3095,0.2985,0.3025,0.3147,0.2975,0,0,0,0,0]},{"header":{"parameterUnit":"m.s-1","parameterCategory":2,"la1":30.2991,"la2":30.254,"lo1":-89.0895,"lo2":-89.0444,"dy":0.0017,"dx":0.0017,"nx":28,"ny":28,"refTime":"2024-12-01T03:00:00:Z","depth":"2","parameterNumber":3,"parameterNumberName":"V-component_of_CURRENTS"},"data":[0,0,0,0,0,0,0,0,0,0,0,0,0,0,0,0,0,0,0,0,0,0,0,0,0,0,0,0,0,0,0,0,0,0,0,0,0,0,0,0,0,0,0,0,0,0,0,0,0,0,0,0,0,0,0,0,0,0,0.016,0.016,0,0.0104,0.0103,0.0103,0.006,0.006,0.006,0.0059,-0.0016,-0.0018,-0.002,0,0,0,0,0,0,0,0,0,0,0,0,0,0.0177,0.0177,0.016,0.016,0.0159,0.0104,0.0103,0.0102,0.006,0.006,0.006,0.0059,-0.0016,-0.0018,-0.002,0,0,0,0,0,0,0,0,0,0,0,0,0,0.0149,0.0177,0.016,0.0133,0.013,0.0104,0.0103,0.0102,0.006,0.006,0.006,0.0059,-0.0015,-0.0018,-0.002,-0.003,0,0,-0.0029,-0.003,0,0,0,0,0,0,0,0,0.0151,0.0148,0.0137,0.0134,0.0131,0.009,0.0082,0.0058,0.006,0.0085,0.0059,0.0059,0.0019,0.0013,0.0001,-0.0034,-0.0037,-0.0029,-0.0031,-0.0032,-0.0033,0,0,0,0,0,0,0,0.0153,0.015,0.0136,0.0137,0.0133,0.0105,0.0101,0.0077,0.0053,0.0083,0.008,0.0076,0.0017,0.0004,-0.0001,-0.0038,-0.0029,-0.0031,-0.0033,-0.0034,-0.0084,-0.0084,0,0,0,0,0,0,0.0166,0.0152,0.0138,0.0135,0.0142,0.0105,0.0101,0.0102,0.0053,0.0046,0.0077,0.0075,0.0009,0.0002,-0.0004,-0.0002,-0.0032,-0.0034,-0.0036,-0.0085,-0.0084,-0.0084,0,0,0,0,0,0,0.0167,0.0166,0.014,0.0143,0.0138,0.0106,0.0108,0.0102,0.0092,0.0049,0.0041,0.0074,0.0008,0.0,-0.0018,-0.0006,-0.0035,-0.0038,-0.0085,-0.0085,-0.0084,-0.001,0,0,0,0,0,0,0.0168,0.0167,0.0171,0.0144,0.0139,0.0136,0.0108,0.0101,0.0091,0.0088,0.0045,0.0037,0.0007,-0.0013,-0.002,-0.001,-0.004,-0.0085,-0.0085,-0.0084,-0.0012,-0.0007,-0.0002,0,0,0,0,0,0.0169,0.0184,0.0171,0.0169,0.0146,0.0137,0.0131,0.0105,0.0091,0.0094,0.0064,0.0039,-0.0015,-0.0015,-0.0023,-0.0014,-0.0086,-0.0085,-0.0084,-0.0015,-0.0008,-0.0002,0,0,0,0,0,0,0.0196,0.018,0.0166,0.0176,0.016,0.013,0.013,0.0112,0.009,0.0086,0.0044,0.0035,0.0021,-0.0007,-0.0006,-0.0028,-0.0055,-0.0056,0.0,0.0006,0.0012,0.0033,-0.0042,0,0,0,0,0,0.0204,0.0209,0.0187,0.0195,0.019,0.016,0.0152,0.0136,0.0114,0.0104,0.0073,0.0041,0.0017,0.0005,-0.0024,-0.0032,-0.0061,-0.0033,-0.0028,-0.0023,-0.0012,-0.0046,-0.0042,-0.0082,-0.0082,-0.0082,0,0,0.0215,0.0208,0.021,0.02,0.0185,0.0192,0.0154,0.0151,0.0156,0.0099,0.0095,0.0058,0.0017,0.0006,-0.0002,-0.0014,-0.0028,-0.0022,-0.0018,-0.0009,-0.0045,-0.0041,-0.0037,-0.0082,-0.0082,-0.0082,0,0,0.0249,0.0236,0.0253,0.0245,0.0232,0.0217,0.0221,0.0195,0.0181,0.0171,0.0132,0.0107,0.0068,0.0044,0.0026,0.0044,-0.0,0.0031,0.0078,0.0046,0.0049,0.0052,0.002,0.0019,0.0036,0.0036,0.0036,0,0.0262,0.0283,0.0256,0.0272,0.0276,0.0236,0.026,0.024,0.0212,0.0209,0.0181,0.0126,0.0088,0.0079,0.0082,0.0058,0.0031,0.006,0.0054,0.0056,0.0057,0.0024,0.0022,0.004,0.0039,0.0039,0.0038,0,0.0308,0.0324,0.0335,0.0344,0.0344,0.0357,0.0334,0.0326,0.0303,0.0283,0.0262,0.0203,0.0176,0.0153,0.0122,0.0116,0.0091,0.0064,0.0043,0.0066,0.0029,0.0026,0.0045,0.0043,0.0042,0.0041,0,0,0.0348,0.0365,0.0371,0.0391,0.0386,0.0396,0.0403,0.0404,0.0421,0.0367,0.0379,0.0317,0.0282,0.0259,0.0209,0.0175,0.0155,0.013,0.0127,0.0108,0.0083,0.006,0.0054,0.0127,0.0127,0.0127,0.0054,0,0.0395,0.0448,0.0442,0.0493,0.052,0.0493,0.0507,0.0499,0.0483,0.0481,0.0409,0.0397,0.0323,0.0312,0.0266,0.0189,0.0149,0.0177,0.0056,0.0052,0.0036,0.005,0.0078,0.0015,0.005,0.0049,0.0049,0,0.0447,0.0479,0.0538,0.0577,0.0586,0.0605,0.0633,0.0646,0.0626,0.0611,0.0578,0.052,0.0466,0.0396,0.0271,0.0293,0.0198,0.0125,0.012,0.0072,0.0023,-0.0005,0.0007,0.0043,0.0043,0.0044,0.0044,0,0.0499,0.055,0.0605,0.0616,0.0646,0.0665,0.0684,0.0685,0.0723,0.0701,0.0716,0.0628,0.0601,0.0467,0.0309,0.0293,0.0167,0.0124,0.001,0.0007,-0.0006,-0.0009,0.0033,0.0033,0.0033,0.0033,0.0033,0,0.0557,0.0601,0.0632,0.066,0.0733,0.0728,0.0805,0.0805,0.0834,0.0895,0.0793,0.0812,0.0618,0.0517,0.0352,0.018,0.0197,0.0025,-0.001,0.002,0.002,0.0014,0.0012,0.003,0.0031,0.0032,0.0032,0,0.0606,0.0623,0.0691,0.0735,0.0759,0.0813,0.09,0.096,0.0962,0.1038,0.1036,0.0964,0.0833,0.0622,0.0417,0.0256,0.0077,0.0006,0.0055,0.0027,-0.0075,-0.0071,-0.0125,-0.0126,-0.0127,-0.0128,-0.0129,0,0.0636,0.0675,0.0754,0.0808,0.0832,0.0915,0.0983,0.1024,0.1105,0.1139,0.1188,0.1084,0.1035,0.0718,0.0416,0.0124,0.008,-0.005,-0.0083,-0.006,-0.0089,-0.0084,-0.0079,-0.0074,-0.0074,-0.0075,-0.0075,0,0.0695,0.0718,0.0776,0.0889,0.0969,0.1077,0.1177,0.126,0.1318,0.1376,0.1433,0.1392,0.109,0.0807,0.0398,0.02,-0.0004,-0.0064,-0.0046,-0.0036,-0.0018,-0.0045,-0.0041,-0.0077,-0.0077,-0.0077,-0.0076,-0.0076,0.0741,0.0793,0.0871,0.0982,0.1083,0.1217,0.1322,0.1435,0.1568,0.1658,0.1618,0.1561,0.1223,0.0711,0.0353,-0.0023,-0.0005,-0.0142,-0.0139,-0.0136,-0.0115,-0.0099,-0.017,-0.017,-0.017,-0.0171,-0.0171,0,0.08,0.086,0.0962,0.1091,0.1212,0.1261,0.1441,0.1546,0.1708,0.1775,0.1815,0.1496,0.1166,0.0768,0.0209,-0.0121,-0.0142,-0.0224,-0.0181,-0.0176,-0.0172,-0.0152,-0.0218,-0.0219,-0.022,-0.0221,0,0,0.0829,0.0929,0.0979,0.1173,0.1275,0.145,0.156,0.1709,0.1801,0.1872,0.1842,0.177,0.1284,0.0872,0.0419,0.0095,0.0038,0.0036,0.0111,0.0221,0.0229,-0.0087,-0.0044,0,0,0,0,0]}],[{"header":{"parameterUnit":"m.s-1","parameterCategory":2,"la1":30.2991,"la2":30.254,"lo1":-89.0895,"lo2":-89.0444,"dy":0.0017,"dx":0.0017,"nx":28,"ny":28,"refTime":"2024-12-01T03:00:00:Z","depth":"4","parameterNumber":2,"parameterNumberName":"U-component_of_CURRENTS"},"data":[0,0,0,0,0,0,0,0,0,0,0,0,0,0,0,0,0,0,0,0,0,0,0,0,0,0,0,0,0,0,0,0,0,0,0,0,0,0,0,0,0,0,0,0,0,0,0,0,0,0,0,0,0,0,0,0,0,0,0.2055,0.2056,0,0.2116,0.2117,0.2117,0.2173,0.2174,0.2174,0.2175,0.2241,0.2241,0.2242,0,0,0,0,0,0,0,0,0,0,0,0,0,0.1973,0.1974,0.2055,0.2056,0.2057,0.2116,0.2117,0.2117,0.2172,0.2174,0.2175,0.2176,0.224,0.2241,0.2242,0,0,0,0,0,0,0,0,0,0,0,0,0,0.2016,0.1975,0.2055,0.2094,0.2098,0.2116,0.2117,0.2117,0.2172,0.2174,0.2175,0.2176,0.224,0.2241,0.2243,0.2223,0,0,0.2247,0.2247,0,0,0,0,0,0,0,0,0.2014,0.2019,0.2087,0.2091,0.2096,0.2141,0.2112,0.2154,0.2172,0.2141,0.2175,0.2177,0.2208,0.2212,0.2217,0.2226,0.2229,0.2247,0.2248,0.2248,0.2248,0,0,0,0,0,0,0,0.2011,0.2017,0.2077,0.2088,0.2094,0.2104,0.2111,0.212,0.2164,0.2144,0.2149,0.2159,0.2211,0.2215,0.2219,0.223,0.2247,0.2248,0.2249,0.2249,0.2364,0.2366,0,0,0,0,0,0,0.2008,0.2014,0.2075,0.2079,0.2061,0.2104,0.2113,0.2123,0.2164,0.2173,0.2158,0.2162,0.2212,0.2217,0.2221,0.2316,0.2248,0.2249,0.225,0.2361,0.2364,0.2367,0,0,0,0,0,0,0.2006,0.2013,0.2072,0.205,0.2059,0.2105,0.2115,0.2123,0.2174,0.2176,0.2184,0.2207,0.2214,0.2219,0.2273,0.2315,0.225,0.2251,0.2359,0.2362,0.2365,0.2432,0,0,0,0,0,0,0.2003,0.2012,0.2039,0.205,0.206,0.2111,0.2115,0.2124,0.2177,0.2183,0.2219,0.2223,0.2215,0.2271,0.2275,0.2316,0.2252,0.2356,0.236,0.2364,0.2427,0.2438,0.2446,0,0,0,0,0,0.2,0.2023,0.204,0.2049,0.2089,0.2112,0.2119,0.2154,0.2178,0.2204,0.2237,0.2225,0.2301,0.2274,0.2277,0.232,0.2354,0.2359,0.2364,0.2423,0.2436,0.2446,0,0,0,0,0,0,0.2003,0.2031,0.205,0.2082,0.2111,0.2124,0.2158,0.2179,0.2224,0.2247,0.2248,0.2255,0.232,0.2313,0.2283,0.2368,0.2328,0.2334,0.2372,0.2383,0.2393,0.2396,0.2253,0,0,0,0,0,0.2015,0.2044,0.2067,0.2099,0.2118,0.2148,0.2172,0.2196,0.2226,0.225,0.2275,0.2306,0.2334,0.2355,0.2376,0.2416,0.2419,0.2449,0.2458,0.2466,0.2474,0.2512,0.2525,0.2383,0.2383,0.2383,0,0,0.2026,0.2047,0.2065,0.2103,0.2131,0.2162,0.2167,0.2216,0.2252,0.2247,0.2321,0.2344,0.2355,0.2405,0.2433,0.241,0.2513,0.2473,0.2479,0.2482,0.2518,0.2532,0.2544,0.2387,0.2386,0.2385,0,0,0.2044,0.2083,0.2109,0.2137,0.2188,0.2204,0.2229,0.227,0.2307,0.2365,0.2379,0.243,0.2471,0.2487,0.2497,0.2572,0.2565,0.2589,0.2636,0.2674,0.2685,0.2695,0.273,0.2743,0.259,0.259,0.259,0,0.2062,0.2093,0.2123,0.2154,0.2184,0.2229,0.2262,0.23,0.2358,0.2388,0.2404,0.2491,0.2506,0.2559,0.2593,0.2593,0.2615,0.2588,0.2685,0.2695,0.2704,0.2737,0.275,0.2594,0.2594,0.2593,0.2593,0,0.2084,0.2129,0.215,0.2204,0.2239,0.228,0.2327,0.2381,0.2433,0.2464,0.2549,0.2579,0.2626,0.2646,0.2645,0.2723,0.2719,0.2693,0.2651,0.2722,0.2753,0.2765,0.26,0.2598,0.2597,0.2596,0,0,0.2068,0.215,0.2163,0.2195,0.2271,0.2294,0.2369,0.2429,0.2488,0.2554,0.2623,0.2685,0.2716,0.2731,0.2746,0.2785,0.2875,0.2779,0.2779,0.2805,0.2971,0.279,0.2785,0.2872,0.2875,0.2876,0.297,0,0.2082,0.2139,0.2182,0.2249,0.2279,0.2345,0.2406,0.2473,0.2543,0.2623,0.2672,0.2751,0.2743,0.2792,0.2828,0.2871,0.291,0.2853,0.2905,0.2907,0.2729,0.2794,0.2884,0.2979,0.2982,0.2984,0.2986,0,0.2079,0.2121,0.2184,0.2267,0.2291,0.2346,0.245,0.2513,0.2624,0.2686,0.2766,0.2814,0.2901,0.2883,0.298,0.295,0.2972,0.2992,0.2995,0.2808,0.2747,0.2892,0.3008,0.3006,0.3004,0.3003,0.3001,0,0.2025,0.2117,0.2168,0.2198,0.2303,0.2356,0.2424,0.2537,0.2603,0.2745,0.2809,0.2905,0.2978,0.3021,0.3069,0.3044,0.3163,0.3121,0.2976,0.2964,0.3069,0.3057,0.3183,0.3183,0.3183,0.3182,0.3182,0,0.1993,0.2039,0.2157,0.2182,0.2259,0.2343,0.2442,0.2529,0.266,0.273,0.2847,0.2908,0.3022,0.309,0.3108,0.308,0.3194,0.2995,0.2975,0.3097,0.3087,0.3078,0.3065,0.3186,0.3185,0.3184,0.3184,0,0.1918,0.1997,0.2062,0.2187,0.2235,0.2293,0.2445,0.2503,0.2653,0.2751,0.2804,0.2952,0.3037,0.3117,0.3206,0.3114,0.3118,0.3079,0.323,0.3216,0.2887,0.2877,0.2915,0.2909,0.2904,0.29,0.2897,0,0.1877,0.1907,0.2052,0.2094,0.2161,0.2265,0.2327,0.2487,0.2541,0.274,0.2758,0.2915,0.2986,0.2968,0.3068,0.3091,0.3051,0.3032,0.2929,0.2883,0.2861,0.2857,0.2853,0.2889,0.2888,0.2887,0.2886,0,0.1798,0.1874,0.1928,0.2019,0.2095,0.2159,0.226,0.2286,0.245,0.2612,0.2655,0.2703,0.2792,0.2849,0.2897,0.2901,0.3028,0.298,0.2989,0.2892,0.2852,0.2834,0.2836,0.2869,0.2872,0.2873,0.2874,0,0.1748,0.1765,0.1851,0.1912,0.1999,0.2011,0.2086,0.2137,0.2216,0.2423,0.2437,0.26,0.2759,0.2752,0.2792,0.279,0.2737,0.2631,0.2657,0.2677,0.2552,0.2464,0.2351,0,0,0,0,0,0.1679,0.168,0.173,0.1771,0.1849,0.1899,0.2012,0.2084,0.2243,0.2212,0.2317,0.2387,0.2448,0.2539,0.2488,0.2687,0.2749,0.2615,0.2641,0.2777,0.2796,0.2671,0,0,0,0,0,0,0.1628,0.1673,0.1681,0.164,0.1644,0.1701,0.1767,0.1877,0.1866,0.2048,0.2097,0.2242,0.2343,0.2456,0.2444,0.2471,0.2436,0.2727,0.2721,0.2766,0.2784,0.2799,0.2677,0,0,0,0,0]},{"header":{"parameterUnit":"m.s-1","parameterCategory":2,"la1":30.2991,"la2":30.254,"lo1":-89.0895,"lo2":-89.0444,"dy":0.0017,"dx":0.0017,"nx":28,"ny":28,"refTime":"2024-12-01T03:00:00:Z","depth":"4","parameterNumber":3,"parameterNumberName":"V-component_of_CURRENTS"},"data":[0,0,0,0,0,0,0,0,0,0,0,0,0,0,0,0,0,0,0,0,0,0,0,0,0,0,0,0,0,0,0,0,0,0,0,0,0,0,0,0,0,0,0,0,0,0,0,0,0,0,0,0,0,0,0,0,0,0,0.0157,0.0156,0,0.0122,0.0121,0.0121,0.0096,0.0096,0.0096,0.0096,0.0045,0.0044,0.0043,0,0,0,0,0,0,0,0,0,0,0,0,0,0.0165,0.0165,0.0157,0.0156,0.0156,0.0122,0.0121,0.0121,0.0096,0.0096,0.0096,0.0096,0.0046,0.0044,0.0043,0,0,0,0,0,0,0,0,0,0,0,0,0,0.0148,0.0165,0.0157,0.014,0.0138,0.0122,0.0121,0.0121,0.0096,0.0096,0.0096,0.0096,0.0046,0.0045,0.0043,0.0035,0,0,0.0037,0.0036,0,0,0,0,0,0,0,0,0.0149,0.0148,0.0143,0.0141,0.0139,0.0114,0.0106,0.0091,0.0096,0.0111,0.0096,0.0096,0.0068,0.0064,0.0057,0.0032,0.003,0.0037,0.0036,0.0035,0.0034,0,0,0,0,0,0,0,0.015,0.0149,0.0142,0.0143,0.014,0.0122,0.012,0.0103,0.009,0.011,0.0108,0.0106,0.0066,0.0059,0.0055,0.003,0.0037,0.0035,0.0034,0.0033,-0.0004,-0.0004,0,0,0,0,0,0,0.0159,0.015,0.0143,0.0141,0.0145,0.0122,0.0119,0.0121,0.009,0.0086,0.0106,0.0105,0.0062,0.0058,0.0054,0.0056,0.0035,0.0033,0.0032,-0.0004,-0.0004,-0.0004,0,0,0,0,0,0,0.0159,0.0158,0.0144,0.0145,0.0142,0.0123,0.0125,0.0121,0.0117,0.0088,0.0083,0.0107,0.0062,0.0056,0.0045,0.0053,0.0032,0.0031,-0.0004,-0.0004,-0.0004,0.0052,0,0,0,0,0,0,0.0159,0.0159,0.0164,0.0146,0.0142,0.0142,0.0125,0.012,0.0116,0.0114,0.0087,0.0081,0.0061,0.0048,0.0043,0.005,0.0029,-0.0004,-0.0004,-0.0004,0.005,0.0054,0.0057,0,0,0,0,0,0.016,0.0171,0.0164,0.0163,0.015,0.0143,0.0139,0.0124,0.0116,0.0119,0.01,0.0082,0.0045,0.0047,0.0041,0.0048,-0.0004,-0.0004,-0.0004,0.0048,0.0053,0.0057,0,0,0,0,0,0,0.0178,0.0169,0.0161,0.0169,0.0159,0.0139,0.014,0.0129,0.0116,0.0115,0.0086,0.008,0.0072,0.0051,0.0053,0.0036,0.0017,0.0016,0.0058,0.0063,0.0066,0.0083,0.0028,0,0,0,0,0,0.0184,0.0191,0.0176,0.0183,0.0179,0.0161,0.0156,0.0147,0.0132,0.0126,0.0106,0.0085,0.0067,0.0059,0.004,0.0034,0.0006,0.0032,0.0036,0.004,0.0048,0.0013,0.0015,-0.0003,-0.0003,-0.0003,0,0,0.0193,0.0189,0.0192,0.0187,0.0177,0.0183,0.0158,0.0157,0.0162,0.0123,0.0123,0.0098,0.0068,0.0061,0.0055,0.0046,0.0029,0.004,0.0043,0.005,0.0014,0.0016,0.0017,-0.0003,-0.0003,-0.0003,0,0,0.0216,0.0211,0.0224,0.0219,0.0212,0.0203,0.0206,0.019,0.0182,0.0177,0.015,0.0132,0.0106,0.0087,0.0074,0.0087,0.0049,0.0077,0.0112,0.0078,0.0079,0.008,0.0044,0.0042,0.008,0.0081,0.0081,0,0.0227,0.0243,0.0226,0.0238,0.0243,0.0217,0.0235,0.0222,0.0204,0.0203,0.0185,0.0146,0.012,0.0111,0.0114,0.0096,0.0069,0.01,0.0084,0.0084,0.0084,0.0047,0.0043,0.0083,0.0083,0.0083,0.0082,0,0.0258,0.0272,0.0281,0.029,0.0292,0.0303,0.0288,0.0285,0.0271,0.0259,0.0244,0.0202,0.0182,0.0165,0.0144,0.0134,0.0111,0.0093,0.0076,0.009,0.0049,0.0044,0.0087,0.0086,0.0085,0.0085,0,0,0.0281,0.03,0.0305,0.0323,0.0323,0.0332,0.0339,0.0342,0.0356,0.0319,0.0327,0.0284,0.0259,0.0242,0.0206,0.0173,0.0145,0.0139,0.0136,0.011,0.0067,0.0053,0.0045,0.0123,0.0123,0.0122,0.0038,0,0.0314,0.0354,0.0354,0.0396,0.0416,0.0402,0.0415,0.0412,0.0403,0.0401,0.0347,0.0341,0.0289,0.0283,0.0241,0.0173,0.0135,0.0169,0.0052,0.0049,0.004,0.004,0.0121,0.0034,0.0033,0.0032,0.0031,0,0.0347,0.0372,0.042,0.0457,0.0465,0.0485,0.0511,0.0523,0.0508,0.0499,0.0473,0.0432,0.0384,0.0335,0.022,0.0244,0.0165,0.0101,0.0096,0.0062,0.0026,0.0016,0.0022,0.0023,0.0023,0.0024,0.0025,0,0.0377,0.0421,0.0466,0.0477,0.0508,0.0529,0.0549,0.0555,0.0585,0.0569,0.058,0.0506,0.0479,0.0367,0.0235,0.0229,0.0099,0.0074,-0.0019,-0.0021,-0.0007,-0.0007,-0.001,-0.0009,-0.0009,-0.0009,-0.0009,0,0.041,0.0447,0.0486,0.0508,0.0572,0.0576,0.0642,0.0646,0.0669,0.071,0.064,0.0642,0.0486,0.0392,0.0259,0.0107,0.0115,-0.0011,-0.0042,0.0017,0.002,-0.0011,-0.001,-0.0012,-0.0012,-0.0011,-0.001,0,0.0433,0.0456,0.0513,0.0562,0.0588,0.0634,0.0718,0.0764,0.0772,0.082,0.082,0.0749,0.0624,0.0455,0.0272,0.0152,0.0,-0.0058,0.0021,-0.0005,-0.0106,-0.0101,-0.0167,-0.0168,-0.0169,-0.017,-0.017,0,0.0446,0.0478,0.0559,0.0607,0.0635,0.0712,0.0772,0.0814,0.0869,0.0884,0.0906,0.081,0.0732,0.0472,0.0284,0.0023,-0.0019,-0.0105,-0.0112,-0.0097,-0.0121,-0.0115,-0.0109,-0.0172,-0.0172,-0.0172,-0.0173,0,0.0473,0.0504,0.0553,0.0655,0.0729,0.0821,0.0904,0.0952,0.0996,0.1003,0.0981,0.0844,0.07,0.0485,0.028,0.0092,-0.0054,-0.0117,-0.0116,-0.0123,-0.0105,-0.0126,-0.0119,-0.0176,-0.0176,-0.0175,-0.0175,0,0.0497,0.0536,0.0608,0.07,0.0799,0.0894,0.094,0.0999,0.105,0.1054,0.1045,0.0885,0.0796,0.0521,0.0335,0.0145,0.0089,0.0016,0.0009,0.001,0.0079,0.0129,0.0106,0,0,0,0,0,0.0519,0.0567,0.065,0.075,0.085,0.0913,0.1014,0.1051,0.1089,0.1084,0.1068,0.0931,0.0661,0.0554,0.0362,0.0298,0.0044,0.0063,-0.0046,-0.0195,-0.0191,-0.0143,0,0,0,0,0,0,0.053,0.0607,0.0648,0.0777,0.0854,0.0971,0.104,0.1069,0.1068,0.1071,0.0941,0.0869,0.0617,0.0771,0.0356,0.0299,0.0198,-0.0059,-0.0064,-0.0197,-0.0194,-0.0191,-0.0139,0,0,0,0,0]}]]